This is the latest recevied weather packets stored in our database for station/object K7SKM. If no packets are shown the sender has not sent any weather packets the latest 10 day(s).
| Time | Temp. | Humidity | Pressure | Rain* | Wind** | Luminosity | Snow |
|---|---|---|---|---|---|---|---|
| 1788139901 | 71° F | 46% | 766.9 mmHg | 0 in | - | 33 W/m² | - |
| 1788139596 | 72° F | 45% | 767.1 mmHg | 0 in | - | 43 W/m² | - |
| 1788139291 | 73° F | 43% | 766.9 mmHg | 0 in | - | 44 W/m² | - |
| 1788138990 | 74° F | 43% | 767 mmHg | 0 in | - | 157 W/m² | - |
| 1788138686 | 76° F | 42% | 766.9 mmHg | 0 in | - | 172 W/m² | - |
| 1788138382 | 75° F | 44% | 766.9 mmHg | 0 in | - | 270 W/m² | - |
| 1788138077 | 74° F | 45% | 767 mmHg | 0 in | - | 263 W/m² | - |
| 1788137777 | 74° F | 45% | 767 mmHg | 0 in | - | 273 W/m² | - |
| 1788137472 | 74° F | 45% | 767.1 mmHg | 0 in | - | 282 W/m² | - |
| 1788137168 | 75° F | 44% | 767.2 mmHg | 0 in | - | 288 W/m² | - |
| 1788136863 | 75° F | 44% | 767 mmHg | 0 in | - | 277 W/m² | - |
| 1788136559 | 75° F | 43% | 767.1 mmHg | 0 in | - | 303 W/m² | - |
| 1788136255 | 75° F | 44% | 767.2 mmHg | 0 in | - | 308 W/m² | - |
| 1788135954 | 74° F | 46% | 767.2 mmHg | 0 in | - | 309 W/m² | - |
| 1788135649 | 73° F | 45% | 767 mmHg | 0 in | - | 298 W/m² | - |
| 1788135344 | 74° F | 45% | 767.2 mmHg | 0 in | - | 254 W/m² | - |
| 1788135041 | 73° F | 45% | 767.3 mmHg | 0 in | - | 66 W/m² | - |
| 1788134737 | 72° F | 46% | 767.3 mmHg | 0 in | - | 63 W/m² | - |
| 1788134436 | 72° F | 46% | 767.4 mmHg | 0 in | - | 95 W/m² | - |
| 1788134135 | 72° F | 46% | 767.3 mmHg | 0 in | - | 125 W/m² | - |
| 1788133830 | 73° F | 45% | 767.3 mmHg | 0 in | - | 82 W/m² | - |
| 1788133525 | 74° F | 44% | 767.4 mmHg | 0 in | - | 203 W/m² | - |
| 1788133221 | 72° F | 48% | 767.5 mmHg | 0 in | - | 280 W/m² | - |
| 1788132916 | 71° F | 47% | 767.4 mmHg | 0 in | - | 341 W/m² | - |
| 1788132612 | 72° F | 46% | 767.6 mmHg | 0 in | - | 99 W/m² | - |
* Rain latest hour (hover to see other rain measurements)
** Current wind speed in m/s (hover to see current wind gust speed)